Temperature
19 18 18 17 17 17 17 17 17 17 17 16 16 15 15 15 14 14 13 13 13 12 12 12 12 12 13 13 13 13 13 13 14 14 15 16 16 16 16 16 16 16 16
19 18 18 18 17 17 17 17 17 17 16 16 16 15 15 14 14 13 13 12 12 12 12 12 12 12 12 12 12 12 13 13 13 14 14 16 17 16 16 15 15 15 15
20 19 18 18 18 17 17 17 17 16 16 16 15 15 14 14 14 13 13 12 12 12 11 11 11 11 12 12 12 12 12 13 13 13 14 15 16 16 16 15 15 15 15
20 20 19 19 18 18 18 17 17 16 16 16 15 15 14 14 14 13 13 12 11 11 11 11 11 11 11 11 11 12 12 12 13 13 13 13 13 14 15 15 15 14 14
21 20 20 19 19 18 18 17 17 16 16 15 15 14 14 14 13 13 12 11 12 11 11 10 10 10 11 11 11 11 11 11 12 12 13 13 13 13 13 15 15 15 14
21 21 20 19 19 18 18 17 17 16 16 15 14 14 13 13 12 12 12 12 12 11 11 10 10 10 10 10 10 10 11 11 11 11 12 12 13 13 13 14 14 14 14
21 21 20 20 19 18 18 17 16 16 15 15 14 13 13 12 12 12 12 11 12 12 11 10 10 10 10 9 10 10 10 10 10 10 11 12 12 12 12 13 13 14 14
22 21 21 20 19 18 17 17 16 15 15 14 14 13 12 12 12 12 11 11 11 11 10 10 10 9 9 9 9 10 10 10 10 10 10 11 11 12 12 12 12 13 14
22 21 20 20 19 18 17 17 16 15 14 14 13 12 12 12 11 11 11 11 11 11 10 10 9 9 9 9 9 9 9 9 9 10 10 10 11 11 11 11 12 12 13
22 21 20 19 19 18 17 16 16 15 14 13 13 13 12 11 11 11 11 10 10 10 10 9 9 9 9 9 9 9 9 9 9 9 9 9 10 10 11 11 11 11 12
23 21 20 19 18 18 17 16 15 14 14 13 12 12 12 11 11 11 10 10 10 10 10 9 9 9 9 9 9 9 9 9 9 9 9 9 9 9 10 10 11 11 11
22 21 20 19 18 17 17 16 15 14 14 13 12 12 11 11 11 11 10 10 10 10 9 9 9 9 9 9 9 9 9 9 9 9 9 9 9 9 9 10 10 11 11
21 20 19 19 18 17 17 16 15 14 14 13 12 12 11 11 11 10 10 10 10 9 9 9 9 9 9 9 9 8 8 8 8 8 8 8 8 8 9 9 9 10 10
20 20 19 18 18 17 16 16 15 14 14 13 13 12 11 11 11 10 10 10 9 9 9 9 9 9 9 9 9 8 8 8 8 8 8 8 8 8 8 9 9 9 10
20 20 19 18 18 17 16 16 15 14 14 13 12 12 11 11 10 10 10 10 9 9 9 9 9 9 9 9 9 8 8 8 8 8 8 8 8 8 8 8 9 9 9
21 20 19 19 18 17 17 16 15 14 13 13 12 12 11 11 10 10 10 9 9 9 9 9 9 9 9 9 9 9 8 8 8 8 8 8 8 8 8 8 8 8 8
21 21 20 19 18 18 17 16 15 14 13 13 12 12 11 11 10 10 10 9 9 9 9 9 9 9 9 9 9 9 8 8 8 8 8 8 9 8 8 8 8 8 8
22 21 20 19 18 18 17 16 15 14 13 13 12 12 11 11 10 10 10 9 9 9 9 9 9 9 9 9 9 8 8 8 8 8 8 8 8 8 8 7 8 8 8
22 21 20 19 18 18 17 16 15 14 13 13 12 12 11 10 10 10 9 9 9 9 9 9 9 8 9 9 8 8 8 8 8 8 8 8 7 7 7 7 7 7 8
21 21 20 19 18 18 17 16 15 14 14 13 12 12 11 10 10 10 10 9 9 9 9 9 9 8 9 9 8 8 8 8 8 8 8 7 7 7 7 6 6 7 7
21 20 20 19 18 18 17 16 15 14 13 13 12 11 11 10 10 10 10 9 9 9 9 9 9 9 9 8 8 8 8 7 7 8 8 8 7 7 7 7 6 6 7
21 20 20 19 18 18 17 16 15 14 13 13 12 11 11 10 10 10 10 9 9 9 9 9 9 9 9 8 8 8 8 7 7 7 7 7 7 7 7 6 7 7 6
21 20 20 19 18 18 17 17 16 14 14 13 12 12 11 11 10 10 9 9 9 9 9 9 9 10 9 9 8 8 8 7 7 7 7 7 7 7 7 7 6 6 6
20 20 19 19 18 18 17 17 16 15 14 14 13 12 11 11 10 10 10 10 10 10 10 9 9 9 9 9 8 8 7 7 7 7 7 7 7 7 7 6 6 6 6
19 19 19 19 18 17 17 16 16 15 14 14 13 12 11 11 10 10 10 10 9 9 9 9 9 9 9 9 8 8 7 7 7 6 7 7 7 7 7 7 6 6 6
18 17 18 18 17 17 17 16 16 15 14 13 12 12 12 11 11 10 10 10 10 9 9 9 9 9 8 8 8 8 8 7 7 7 6 7 7 7 7 7 7 7 7
Wind_Speed
8 8 8 8 7 7 7 6 6 5 4 3 3 2 2 3 3 4 4 5 6 6 6 7 5 6 7 7 8 7 8 7 6 8 9 9 11 10 9 9 10 11 13
9 9 9 9 8 8 8 8 8 7 6 4 3 2 4 4 4 4 3 5 5 6 7 6 8 7 7 7 7 7 8 8 6 7 8 8 7 6 7 7 8 8 8
10 11 11 10 10 10 10 9 8 7 7 5 5 4 4 5 5 4 4 4 6 6 7 7 8 7 9 7 7 8 9 8 7 6 6 7 6 7 5 5 5 5 6
11 11 11 11 11 11 10 10 9 8 7 7 7 7 7 7 7 6 5 6 6 6 7 7 7 7 8 7 8 7 7 8 9 6 6 7 8 7 7 7 5 5 6
11 11 11 11 10 9 9 8 8 8 7 7 6 7 8 7 6 6 6 7 6 6 6 6 7 7 7 7 8 8 8 8 9 9 8 8 7 9 10 10 8 7 6
11 11 10 9 8 8 7 7 7 6 6 6 5 6 7 7 8 8 8 7 6 5 5 6 6 7 7 7 8 8 9 8 9 9 9 9 9 9 9 10 10 10 8
10 10 10 9 9 8 7 6 5 5 5 5 5 5 6 7 8 8 7 7 7 6 5 6 6 7 7 8 8 8 9 9 9 9 10 9 9 9 9 10 11 11 10
9 9 8 8 7 7 6 5 5 4 4 4 4 5 6 7 7 6 8 8 8 8 7 8 8 8 8 9 8 9 9 8 9 11 11 10 11 10 10 10 10 11 10
8 8 8 7 7 6 6 5 5 4 4 4 5 6 6 7 7 8 9 8 7 8 8 9 9 9 9 9 9 9 9 9 10 11 11 11 10 10 10 10 10 11 11
9 9 8 8 7 7 6 5 5 5 5 5 6 6 6 7 8 9 9 10 10 10 10 10 10 10 10 10 10 11 10 10 10 10 11 11 11 10 10 11 11 11 11
10 10 9 8 8 7 6 6 5 6 6 6 6 7 7 8 8 9 9 9 10 10 10 11 11 11 11 10 10 11 11 11 12 11 12 12 12 11 11 11 11 11 11
10 10 9 9 8 7 7 6 6 6 6 6 6 7 7 8 9 10 9 9 10 11 11 11 12 12 12 11 11 12 12 12 13 13 12 13 11 12 12 11 12 12 11
10 10 9 9 8 7 6 6 6 6 6 6 7 8 8 9 9 10 10 10 11 11 12 12 12 12 12 12 11 12 12 13 13 13 13 13 13 13 12 12 12 12 12
11 11 10 9 8 7 6 6 6 5 6 6 7 8 9 9 9 10 10 11 11 11 12 12 12 12 12 12 12 12 12 12 13 13 13 14 14 14 13 12 13 13 13
12 11 10 9 8 8 7 7 6 6 6 7 8 8 9 9 10 10 11 11 11 11 11 12 12 12 12 11 11 11 12 12 13 13 13 14 13 13 12 12 12 12 12
12 11 11 10 9 8 8 7 6 6 6 7 8 8 9 9 10 10 11 11 11 11 11 12 12 12 11 5 4 10 13 14 14 14 14 13 14 15 16 18 18 16 15
11 11 11 10 9 8 7 7 6 6 6 7 8 9 9 10 10 11 11 11 11 11 11 11 12 13 12 8 8 10 12 15 15 15 14 13 12 11 14 16 20 20 21
10 10 10 10 9 8 8 6 6 6 7 8 8 9 9 10 10 11 11 11 11 11 11 11 12 12 12 8 9 9 13 15 15 15 15 14 14 13 12 14 15 16 17
10 10 10 9 9 8 7 7 7 7 7 8 8 9 9 10 11 11 11 11 11 11 11 12 12 12 12 9 9 10 11 13 15 14 14 14 14 10 8 13 15 16 15
10 10 10 9 9 9 8 7 7 7 8 8 8 8 9 10 11 11 12 11 10 11 12 12 12 12 13 8 8 9 10 12 12 12 12 12 13 9 6 12 15 16 16
11 11 11 10 10 9 9 8 8 8 8 7 8 9 9 10 11 11 11 11 11 11 12 13 12 12 12 9 9 10 9 11 12 11 10 8 7 9 10 12 14 14 13
12 12 11 11 10 10 10 9 9 8 7 7 8 9 9 10 10 10 11 11 11 12 12 11 12 10 9 7 6 10 12 11 12 12 11 7 3 6 10 11 12 12 11
11 12 12 11 10 10 10 10 9 8 7 8 9 9 10 9 10 11 11 11 10 10 10 10 10 10 8 6 10 12 13 13 11 11 10 9 8 10 12 16 15 12 12
10 10 11 11 11 11 11 11 9 8 8 9 9 9 9 10 10 9 10 10 10 10 10 10 10 10 9 8 6 6 7 11 12 11 11 14 16 14 13 10 11 12 12
8 9 10 11 11 10 10 10 9 9 9 10 10 10 10 10 9 9 9 10 10 9 10 11 11 11 11 7 7 8 10 9 8 9 10 11 10 10 10 10 10 10 11
5 6 8 9 9 9 9 9 9 10 10 10 10 9 8 8 8 9 10 10 13 12 13 15 15 12 13 13 11 11 12 13 10 8 11 11 10 10 9 9 9 9 10
Wind_Direction
163 164 169 173 175 179 182 187 192 182 198 213 244 266 293 309 318 324 350 329 330 329 314 307 309 293 294 299 293 290 283 278 292 290 286 275 256 248 248 247 251 246 241
174 180 187 190 198 201 205 207 210 210 220 222 252 276 302 300 312 319 324 319 324 318 308 315 300 298 299 283 283 281 289 289 287 296 300 292 270 233 251 248 244 251 250
190 194 200 205 211 215 216 221 221 222 230 234 244 252 254 267 282 305 307 322 316 310 311 306 302 305 292 291 295 285 275 285 286 282 295 300 304 316 264 262 262 266 265
203 206 208 213 219 222 222 223 226 228 229 233 252 272 288 299 311 307 313 312 299 301 300 300 299 297 295 297 283 280 283 275 278 271 265 278 299 293 293 278 269 276 277
209 215 217 221 225 225 224 223 223 228 231 240 250 261 278 294 298 304 300 297 297 293 294 297 296 292 289 299 300 295 281 277 276 282 279 274 267 261 274 286 295 289 283
214 219 221 220 221 220 220 220 218 224 228 235 248 262 284 292 298 298 301 298 299 297 300 297 294 287 292 293 287 287 275 276 282 280 278 276 275 275 277 282 285 289 290
211 214 216 214 213 214 214 213 211 218 223 236 253 265 276 279 275 285 296 299 301 303 313 307 295 292 291 285 284 278 282 278 274 270 272 273 272 277 279 282 287 291 289
206 206 205 202 203 202 199 201 206 220 231 245 257 266 269 274 286 294 300 297 296 304 313 296 288 286 285 283 281 279 273 271 272 270 271 274 270 272 271 274 282 286 286
195 194 189 187 183 183 186 195 203 222 239 256 261 264 269 280 291 293 280 286 293 294 294 291 287 284 282 280 279 275 278 276 271 270 263 260 268 266 267 268 268 275 282
192 187 181 177 175 177 180 193 208 228 248 258 266 272 274 275 280 286 296 295 293 291 289 287 286 283 280 276 272 274 268 269 269 270 275 273 271 272 268 266 265 263 268
191 183 178 176 178 182 189 202 215 233 249 263 270 280 281 283 282 281 285 288 290 291 286 285 285 283 280 277 272 272 276 270 269 269 265 262 268 271 272 267 263 261 261
186 179 177 180 188 197 205 214 229 244 256 266 272 276 281 282 283 285 289 289 288 287 288 286 284 282 280 277 273 272 273 271 269 267 267 265 263 260 263 267 266 264 263
184 182 184 191 198 206 216 228 241 256 264 269 272 278 281 284 286 289 290 290 289 288 289 287 284 283 281 278 274 273 273 271 269 268 265 263 262 262 262 263 265 265 260
187 190 192 198 204 209 217 232 249 261 267 273 277 281 284 289 291 292 291 289 290 289 289 288 286 284 282 278 274 273 273 272 270 267 263 262 259 259 260 261 259 262 265
194 198 202 201 205 210 219 231 245 255 264 270 277 283 286 289 290 292 291 291 291 289 289 288 286 283 280 274 277 281 278 277 274 269 264 260 258 265 267 268 267 263 259
204 205 207 207 208 212 220 229 240 251 256 267 278 287 289 289 291 294 293 293 291 289 288 286 285 284 281 300 291 278 282 280 276 273 269 265 252 243 239 249 260 267 266
211 210 209 209 210 212 217 227 239 250 259 269 278 285 287 288 293 296 297 295 293 290 288 286 285 284 283 269 251 254 272 275 275 274 271 269 266 250 250 239 234 243 247
216 213 211 207 207 209 212 223 236 246 261 272 279 285 287 289 293 295 295 294 292 291 289 288 287 286 284 259 244 251 264 269 271 271 269 268 270 266 263 263 256 250 242
218 214 213 209 204 208 211 217 236 250 262 272 278 285 289 291 293 294 296 295 292 290 290 288 288 287 285 260 236 248 275 271 272 272 271 270 270 266 245 258 262 261 257
214 208 205 205 200 204 205 219 239 252 264 274 280 285 285 287 290 292 294 293 290 287 289 290 290 287 285 270 226 235 272 276 278 276 271 258 252 270 243 256 257 256 255
211 205 205 207 207 200 201 219 240 254 267 275 278 278 280 283 284 287 287 288 287 289 290 290 287 283 278 269 232 227 264 280 284 283 280 279 200 224 234 246 256 260 268
211 206 206 211 206 200 202 220 237 251 261 266 269 273 277 283 289 287 285 284 285 284 283 284 287 287 278 262 241 216 238 269 279 279 281 288 180 233 243 245 251 255 261
217 211 211 212 206 201 207 224 236 242 249 256 263 270 276 280 282 282 283 283 280 281 288 292 294 297 299 275 213 222 233 238 255 273 290 293 270 261 253 240 239 240 241
225 217 215 216 211 206 210 222 231 236 243 252 260 265 270 274 277 279 279 282 286 288 290 292 295 299 299 298 298 280 255 230 243 262 264 245 244 247 259 256 228 232 236
238 226 220 221 218 212 215 220 222 226 241 250 256 263 268 275 281 278 277 280 283 291 291 294 297 299 300 326 355 312 299 299 308 306 284 276 267 254 247 245 241 234 230
261 242 237 233 226 218 220 221 218 219 232 246 252 260 267 273 277 281 282 247 242 254 246 250 263 280 278 289 289 279 272 271 273 277 272 273 270 266 261 256 249 236 231
Height
1545 1546 1548 1549 1550 1551 1552 1553 1554 1554 1554 1555 1555 1555 1554 1552 1551 1549 1546 1544 1542 1541 1539 1539 1538 1537 1537 1535 1535 1534 1533 1532 1531 1530 1528 1526 1524 1524 1523 1523 1524 1524 1524
1544 1546 1547 1549 1550 1550 1551 1552 1552 1553 1553 1553 1553 1552 1551 1550 1549 1547 1544 1542 1540 1538 1538 1536 1535 1535 1533 1532 1531 1530 1530 1530 1529 1528 1525 1523 1522 1520 1520 1519 1519 1519 1519
1542 1545 1546 1548 1549 1549 1550 1551 1551 1551 1551 1551 1551 1550 1548 1547 1547 1545 1543 1540 1538 1536 1534 1533 1532 1531 1530 1530 1528 1527 1527 1527 1526 1525 1525 1522 1519 1518 1518 1516 1516 1514 1514
1541 1543 1545 1546 1547 1548 1549 1549 1549 1549 1548 1548 1548 1548 1547 1546 1544 1542 1540 1537 1535 1534 1532 1530 1529 1527 1527 1526 1525 1525 1524 1523 1523 1523 1522 1522 1520 1519 1515 1515 1513 1512 1510
1538 1540 1542 1544 1545 1546 1546 1547 1546 1546 1546 1545 1545 1544 1543 1542 1541 1539 1537 1535 1534 1531 1529 1527 1526 1524 1524 1523 1521 1520 1520 1520 1520 1520 1519 1518 1517 1516 1515 1512 1511 1509 1508
1536 1538 1539 1541 1542 1543 1543 1544 1543 1543 1543 1542 1542 1540 1539 1538 1537 1535 1534 1533 1532 1529 1528 1525 1523 1521 1521 1519 1518 1517 1517 1516 1515 1515 1515 1515 1514 1513 1511 1509 1507 1506 1504
1533 1535 1536 1538 1539 1540 1541 1541 1541 1540 1540 1539 1539 1537 1536 1534 1533 1532 1532 1530 1529 1527 1525 1523 1520 1518 1517 1515 1514 1513 1513 1512 1511 1510 1511 1511 1510 1509 1508 1507 1504 1502 1501
1530 1531 1533 1535 1536 1537 1538 1538 1538 1538 1537 1537 1535 1534 1532 1532 1532 1530 1528 1527 1525 1524 1521 1518 1516 1515 1513 1512 1511 1510 1509 1508 1507 1506 1506 1506 1506 1505 1504 1504 1502 1499 1497
1526 1529 1530 1532 1533 1534 1535 1536 1536 1535 1534 1534 1532 1530 1530 1529 1528 1526 1524 1524 1522 1520 1518 1515 1513 1511 1509 1508 1506 1506 1504 1504 1502 1502 1502 1501 1501 1500 1500 1499 1499 1498 1495
1524 1526 1528 1530 1531 1532 1532 1533 1532 1532 1531 1530 1529 1529 1527 1525 1524 1523 1521 1519 1517 1515 1513 1511 1509 1507 1505 1504 1502 1501 1500 1499 1498 1497 1496 1495 1496 1495 1495 1494 1494 1493 1492
1520 1523 1525 1527 1528 1529 1530 1530 1529 1528 1528 1527 1525 1524 1523 1522 1521 1519 1517 1515 1513 1511 1509 1507 1505 1503 1501 1499 1498 1497 1496 1494 1493 1492 1492 1490 1490 1490 1490 1489 1489 1488 1488
1518 1520 1522 1524 1525 1526 1527 1527 1526 1526 1525 1523 1522 1521 1520 1518 1517 1516 1514 1511 1509 1507 1505 1502 1500 1498 1497 1495 1493 1492 1491 1490 1488 1487 1487 1486 1485 1484 1484 1483 1483 1483 1482
1515 1518 1520 1521 1522 1523 1524 1524 1523 1523 1522 1520 1519 1518 1517 1515 1513 1511 1509 1507 1504 1502 1500 1498 1495 1493 1492 1490 1488 1487 1485 1484 1483 1482 1481 1480 1480 1479 1479 1478 1478 1477 1477
1512 1514 1516 1518 1519 1519 1520 1520 1520 1519 1518 1517 1516 1515 1513 1512 1510 1507 1505 1502 1500 1497 1495 1493 1490 1488 1486 1485 1483 1482 1480 1479 1477 1476 1475 1474 1474 1473 1473 1472 1472 1472 1472
1509 1511 1513 1514 1515 1515 1516 1516 1516 1515 1514 1513 1513 1511 1510 1508 1505 1503 1501 1498 1495 1493 1490 1488 1485 1483 1481 1480 1479 1477 1476 1474 1472 1470 1469 1468 1467 1467 1466 1467 1467 1467 1466
1505 1507 1509 1510 1511 1512 1512 1512 1512 1512 1511 1509 1509 1508 1506 1504 1501 1499 1496 1493 1491 1488 1485 1483 1480 1478 1477 1476 1473 1471 1469 1468 1466 1464 1463 1462 1461 1459 1459 1459 1459 1460 1460
1501 1503 1505 1506 1507 1508 1508 1508 1508 1508 1507 1506 1505 1504 1502 1500 1497 1495 1492 1489 1486 1483 1481 1478 1475 1473 1471 1469 1467 1465 1463 1461 1460 1458 1457 1456 1456 1454 1453 1452 1451 1452 1452
1498 1499 1501 1502 1503 1504 1504 1504 1505 1504 1503 1503 1501 1500 1498 1496 1493 1490 1487 1484 1481 1479 1476 1473 1470 1468 1466 1463 1461 1459 1457 1455 1454 1452 1450 1449 1448 1448 1447 1446 1446 1446 1446
1494 1496 1497 1499 1499 1500 1500 1501 1501 1501 1500 1499 1497 1496 1494 1491 1488 1486 1483 1480 1477 1474 1471 1468 1466 1462 1460 1458 1455 1453 1451 1450 1448 1446 1444 1442 1441 1441 1439 1439 1439 1439 1439
1490 1491 1493 1494 1495 1495 1496 1496 1497 1497 1496 1495 1493 1491 1489 1486 1483 1480 1477 1475 1472 1469 1466 1463 1461 1457 1455 1452 1450 1448 1446 1444 1442 1440 1438 1436 1434 1434 1432 1432 1432 1431 1432
1485 1486 1488 1489 1490 1491 1491 1491 1492 1492 1492 1490 1488 1486 1484 1481 1478 1475 1472 1470 1467 1464 1461 1458 1455 1452 1449 1447 1444 1442 1440 1439 1436 1434 1432 1431 1428 1427 1425 1424 1424 1424 1425
1480 1481 1482 1484 1485 1486 1486 1487 1487 1487 1486 1484 1483 1481 1479 1477 1474 1471 1468 1465 1462 1459 1456 1453 1450 1448 1445 1442 1439 1437 1435 1432 1430 1428 1427 1426 1423 1421 1419 1418 1417 1417 1417
1475 1476 1477 1478 1480 1480 1481 1482 1482 1482 1480 1479 1478 1476 1474 1472 1469 1466 1463 1461 1458 1455 1452 1449 1446 1444 1441 1438 1434 1432 1429 1427 1424 1423 1421 1419 1417 1415 1413 1412 1411 1411 1411
1471 1471 1472 1473 1474 1475 1476 1476 1476 1476 1475 1474 1473 1471 1469 1467 1464 1461 1459 1457 1454 1451 1448 1445 1442 1439 1436 1434 1431 1429 1425 1422 1419 1417 1415 1413 1411 1409 1407 1406 1405 1404 1405
1466 1467 1467 1467 1468 1470 1470 1471 1471 1470 1470 1469 1467 1466 1464 1462 1459 1456 1453 1451 1448 1446 1443 1441 1438 1435 1432 1430 1426 1423 1421 1418 1415 1412 1410 1408 1406 1404 1402 1401 1400 1399 1399
1462 1462 1462 1463 1463 1464 1465 1465 1465 1464 1463 1463 1462 1461 1460 1457 1455 1452 1449 1445 1442 1439 1437 1434 1431 1428 1426 1423 1420 1417 1415 1412 1409 1406 1404 1402 1400 1398 1397 1396 1394 1394 1393